Location: Ambatotampy
(18.8181°S, 47.6186°E)
Time: 00:11:36
(UTC+00:00)

SWIFT - Pass Details

Date: 21 January 2021
Orbit: 544 x 559 km, 20.6° (Epoch: 24 February)

Event Time Altitude Azimuth Distance (km) Brightness Sun altitude
Exits shadow 00:39:26 65° 63° (ENE) 599 2.5 -23.9°
Drops below altitude 10° 00:43:11 10° 97° (E) 1,808 5.8 -23.2°
Sets 00:45:28 0° 98° (E) 2,700 7.0 -22.7°
